Home   Weather   Khartoum   Past weeks

Flag for Sudan Past Weather in Khartoum, Sudan — Yesterday and Last 2 Weeks

Now
86 °F

Clear.


Feels Like: 83 °F
Forecast: 76 / 104 °F
Wind: 6 mph from North

Location: Khartoum Airport

Current Time: Apr 28, 2017 at 3:43:13 am

Latest Report: Apr 28, 2017 at 3:00 am


Visibility: 10 mi

Pressure: 29.83 "Hg

Humidity: 9%

Dew Point: 21 °F

Location of KhartoumLocation

Past Weather in Khartoum — Graph

°F

Khartoum Temperature Yesterday

Maximum temperature yesterday: 104 °F (at 2:00 pm)
Minimum temperature yesterday: 81 °F (at 4:00 am)
Average temperature yesterday: 93 °F

High & Low Weather Summary for the Past Weeks

 TemperatureHumidityPressure
High111 °F (Apr 22, 3:00 pm)19% (Apr 21, 11:00 am)29.98 "Hg (Apr 21, 11:00 am)
Low77 °F (Apr 25, 7:30 am)4% (Apr 24, 1:00 am)29.65 "Hg (Apr 21, 3:30 pm)
Average95 °F10%29.78 "Hg
* Reported Apr 19 9:30 am — Apr 28 2:30 am, Khartoum, Weather by CustomWeather, © 2017

Note: Actual official high and low records may vary slightly from our data, if they occured in-between our weather recording intervals... More about our weather records

Advertising

Khartoum Weather History for the Previous 24 Hours

Scroll right to see more
 ConditionsComfort  
Time TempWeatherWind HumidityBarometerVisibility
2:30 am
Fri, Apr 28
86 °FClear.6 mph9%29.83 "Hg10 mi
2:00 am86 °FClear.6 mph9%29.83 "Hg10 mi
1:30 am91 °FClear.3 mph7%29.83 "Hg10 mi
1:00 am91 °FClear.8 mph7%29.83 "Hg10 mi
12:30 am91 °FClear.6 mph7%29.83 "Hg10 mi
12:00 am91 °FClear.7 mph7%29.86 "Hg10 mi
11:30 pm
Thu, Apr 27
93 °FClear.6 mph8%29.86 "Hg10 mi
11:00 pm93 °FClear.7 mph8%29.86 "Hg10 mi
10:00 pm95 °FClear.7 mph6%29.83 "Hg10 mi
9:30 pm95 °FClear.8 mph6%29.83 "Hg10 mi
9:00 pm97 °FClear.6 mph8%29.83 "Hg10 mi
8:30 pm97 °FClear.6 mph6%29.83 "Hg10 mi
8:00 pm97 °FClear.6 mph8%29.80 "Hg10 mi
7:30 pm99 °FClear.6 mph7%29.80 "Hg10 mi
7:00 pm100 °FSunny.6 mph5%29.80 "Hg10 mi
6:30 pm102 °FSunny.9 mph5%29.77 "Hg10 mi
6:00 pm104 °FSunny.9 mph6%29.77 "Hg10 mi
5:30 pm104 °FSunny.9 mph6%29.77 "Hg10 mi
5:00 pm104 °FSunny.7 mph6%29.77 "Hg10 mi
4:30 pm104 °FSunny.9 mph6%29.80 "Hg10 mi
3:30 pm104 °FSunny.7 mph5%29.80 "Hg10 mi
3:00 pm104 °FSunny.7 mph6%29.83 "Hg10 mi
2:30 pm104 °FSunny.9 mph5%29.83 "Hg10 mi
2:00 pm104 °FSunny.12 mph6%29.86 "Hg10 mi
1:30 pm99 °FSunny.10 mph7%29.86 "Hg10 mi
1:00 pm99 °FSunny.9 mph7%29.89 "Hg10 mi
12:30 pm99 °FSunny.10 mph7%29.89 "Hg10 mi
12:00 pm99 °FSunny.14 mph7%29.89 "Hg10 mi
11:30 am97 °FSunny.13 mph8%29.92 "Hg10 mi
11:00 am93 °FSunny.10 mph8%29.92 "Hg10 mi
10:00 am91 °FSunny.14 mph7%29.92 "Hg10 mi
9:30 am90 °FSunny.14 mph7%29.92 "Hg10 mi
9:00 am84 °FSunny.13 mph9%29.92 "Hg10 mi
8:30 am84 °FSunny.12 mph7%29.92 "Hg10 mi
8:00 am82 °FSunny.10 mph9%29.89 "Hg10 mi
7:30 am82 °FSunny.9 mph9%29.89 "Hg10 mi
7:00 am81 °FSunny.10 mph7%29.89 "Hg10 mi
6:30 am81 °FSunny.10 mph9%29.86 "Hg10 mi
6:00 am82 °FClear.8 mph9%29.86 "Hg10 mi
5:30 am82 °FClear.8 mph9%29.83 "Hg10 mi
4:30 am84 °FClear.8 mph9%29.83 "Hg10 mi
4:00 am81 °FClear.7 mph9%29.83 "Hg10 mi
3:30 am82 °FClear.7 mph9%29.83 "Hg10 mi
3:00 am82 °FClear.9 mph9%29.86 "Hg10 mi
Weather by CustomWeather, © 2017

See weather overviewHow to use our weather pages